DW6725 Weather Reports


Display with metric or nautical units.
time (UTC)temp
F
wind
direction
speed
MPH
gust
MPH
rain 1hr
in
rain 24hr
in
rain mn
in
humidity
%
barometer
mb
20260906202007 73 336 4.0 12.0 0.00 0.00 0.00 55 1017.8
20260906201003 73 47 4.0 6.0 0.00 0.00 0.00 54 1017.9
20260906200004 73 325 4.0 10.0 0.00 0.00 0.00 54 1017.6
20260906195003 73 4 3.0 10.0 0.00 0.00 0.00 55 1017.5
20260906194006 74 40 4.0 14.0 0.00 0.00 0.00 52 1017.5
20260906193008 74 26 3.0 10.0 0.00 0.00 0.00 50 1017.5
20260906192213 73 351 5.0 14.0 0.00 0.00 0.00 54 1017.3
20260906191003 72 360 2.0 8.0 0.00 0.00 0.00 54 1017.7
20260906190214 72 41 3.0 8.0 0.00 0.00 0.00 53 1017.6
20260906185003 72 11 4.0 10.0 0.00 0.00 0.00 54 1017.7
20260906184214 72 358 3.0 7.0 0.00 0.00 0.00 55 1017.6
20260906183004 72 11 3.0 10.0 0.00 0.00 0.00 54 1017.6
20260906182214 72 12 3.0 10.0 0.00 0.00 0.00 53 1017.6
20260906181004 72 38 2.0 7.0 0.00 0.00 0.00 53 1017.8
20260906180003 72 21 2.0 8.0 0.00 0.00 0.00 54 1017.7
20260906175003 71 17 4.0 8.0 0.00 0.00 0.00 58 1017.8
20260906174214 71 330 3.0 10.0 0.00 0.00 0.00 57 1017.9
20260906173004 70 23 3.0 10.0 0.00 0.00 0.00 56 1017.9
20260906172003 70 29 3.0 9.0 0.00 0.00 0.00 57 1017.9
20260906171004 71 7 2.0 7.0 0.00 0.00 0.00 58 1018.0
20260906170005 70 44 3.0 10.0 0.00 0.00 0.00 57 1017.9
20260906165006 70 357 3.0 7.0 0.00 0.00 0.00 59 1018.0
20260906164005 69 32 2.0 10.0 0.00 0.00 0.00 59 1017.9
20260906163004 69 24 3.0 8.0 0.00 0.00 0.00 60 1018.1
20260906162213 69 19 2.0 10.0 0.00 0.00 0.00 60 1018.2
20260906161005 69 10 3.0 6.0 0.00 0.00 0.00 60 1018.4
20260906160215 69 18 3.0 10.0 0.00 0.00 0.00 60 1018.3
20260906155004 69 15 4.0 9.0 0.00 0.00 0.00 60 1018.4
20260906154004 69 27 3.0 8.0 0.00 0.00 0.00 64 1018.4
20260906153005 68 30 4.0 10.0 0.00 0.00 0.00 63 1018.3
20260906152006 68 4 3.0 10.0 0.00 0.00 0.00 66 1018.4
20260906151006 67 5 2.0 7.0 0.00 0.00 0.00 67 1018.5
20260906150003 67 37 3.0 9.0 0.00 0.00 0.00 67 1018.5
20260906145004 67 15 2.0 9.0 0.00 0.00 0.00 69 1018.5
20260906144003 66 14 3.0 10.0 0.00 0.00 0.00 69 1018.4
20260906143004 66 11 2.0 8.0 0.00 0.00 0.00 72 1018.3
20260906142003 65 34 2.0 8.0 0.00 0.00 0.00 77 1018.1
20260906141003 65 41 3.0 5.0 0.00 0.00 0.00 77 1018.0
20260906140004 65 19 2.0 7.0 0.00 0.00 0.00 78 1018.1
20260906135214 65 13 2.0 6.0 0.00 0.00 0.00 79 1018.2
20260906134003 65 30 2.0 6.0 0.00 0.00 0.00 79 1018.2
20260906133214 65 23 2.0 6.0 0.00 0.00 0.00 79 1018.0
20260906132003 66 18 2.0 5.0 0.00 0.00 0.00 79 1018.2
20260906131003 63 19 2.0 5.0 0.00 0.00 0.00 85 1018.1
20260906130004 62 45 2.0 5.0 0.00 0.00 0.00 87 1018.1
20260906125003 63 41 2.0 5.0 0.00 0.00 0.00 88 1018.0
20260906124214 62 24 1.0 4.0 0.00 0.00 0.00 93 1018.1
20260906123003 61 15 2.0 6.0 0.00 0.00 0.00 95 1018.0
20260906122003 61 17 2.0 6.0 0.00 0.00 0.00 96 1017.9
20260906121003 60 13 2.0 5.0 0.00 0.00 0.00 97 1017.8
20260906120216 60 25 2.0 5.0 0.00 0.00 0.00 98 1017.9
20260906115214 60 15 0.0 3.0 0.00 0.00 0.00 98 1017.7
20260906114003 60 12 1.0 4.0 0.00 0.00 0.00 98 1017.6
20260906113003 60 342 1.0 3.0 0.00 0.00 0.00 98 1017.6
20260906112004 60 343 0.0 4.0 0.00 0.00 0.00 98 1017.4
20260906111003 60 345 0.0 3.0 0.00 0.00 0.00 98 1017.5
20260906110004 60 318 0.0 3.0 0.00 0.00 0.00 98 1017.2
20260906105004 60 298 1.0 5.0 0.00 0.00 0.00 98 1017.0
20260906104004 60 270 0.0 3.0 0.00 0.00 0.00 98 1016.8
20260906103004 60 249 0.0 3.0 0.00 0.00 0.00 98 1016.7
20260906102005 61 278 1.0 3.0 0.00 0.00 0.00 98 1016.5
20260906101005 61 270 0.0 2.0 0.00 0.00 0.00 97 1016.5
20260906100004 61 241 0.0 3.0 0.00 0.00 0.00 97 1016.5
20260906095005 61 15 0.0 2.0 0.00 0.00 0.00 97 1016.3
20260906094005 61 303 0.0 2.0 0.00 0.00 0.00 98 1016.2
20260906093004 61 0 0.0 0.0 0.00 0.00 0.00 98 1015.9
20260906092005 61 0 0.0 1.0 0.00 0.00 0.00 97 1015.9
20260906091215 61 0 0.0 2.0 0.00 0.00 0.00 97 1015.8
20260906090215 61 228 0.0 2.0 0.00 0.00 0.00 96 1015.6
20260906085003 61 204 0.0 2.0 0.00 0.00 0.00 96 1015.4
20260906084005 61 228 1.0 4.0 0.00 0.00 0.00 96 1015.5
20260906083005 61 180 1.0 2.0 0.00 0.00 0.00 96 1015.4
20260906082003 61 189 1.0 2.0 0.00 0.00 0.00 96 1015.2
20260906081004 62 184 1.0 3.0 0.00 0.00 0.00 96 1015.2
20260906080004 62 216 1.0 2.0 0.00 0.00 0.00 96 1015.3
20260906075004 62 210 1.0 3.0 0.00 0.00 0.00 96 1015.2
20260906074003 62 236 0.0 3.0 0.00 0.00 0.00 96 1015.3
20260906073003 62 218 1.0 3.0 0.00 0.00 0.00 95 1015.1
20260906072214 62 207 0.0 3.0 0.00 0.00 0.00 95 1015.0
20260906071004 62 235 1.0 4.0 0.00 0.00 0.00 95 1015.2
20260906070004 62 221 1.0 3.0 0.00 0.00 0.00 95 1015.1
20260906065004 63 213 1.0 3.0 0.00 0.00 0.00 93 1015.1
20260906064003 63 242 1.0 4.0 0.00 0.00 0.00 93 1015.0
20260906063214 63 216 0.0 3.0 0.00 0.00 0.00 93 1015.1
20260906062003 63 250 0.0 3.0 0.00 0.00 0.00 93 1015.0
20260906061003 64 0 0.0 1.0 0.00 0.00 0.00 93 1015.2
20260906060003 64 248 0.0 2.0 0.00 0.00 0.00 92 1015.2
20260906055003 64 236 0.0 4.0 0.00 0.00 0.00 92 1015.0
20260906054003 64 257 0.0 4.0 0.00 0.00 0.00 92 1015.1
20260906053004 65 234 0.0 3.0 0.00 0.00 0.00 92 1015.1
20260906052005 65 0 0.0 0.0 0.00 0.00 0.00 93 1015.1
20260906051004 65 0 0.0 0.0 0.00 0.00 0.00 93 1015.1
20260906050004 65 0 0.0 0.0 0.00 0.00 0.00 94 1015.0
20260906045004 65 0 0.0 0.0 0.00 0.00 0.00 94 1015.1
20260906044004 65 0 0.0 1.0 0.00 0.00 0.00 94 1015.2
20260906043005 65 259 0.0 3.0 0.00 0.00 0.00 94 1015.2
20260906042215 65 243 1.0 4.0 0.00 0.00 0.00 93 1015.3
20260906041004 65 247 0.0 3.0 0.00 0.00 0.00 93 1015.4
20260906040008 65 274 0.0 3.0 0.00 0.00 0.00 93 1015.4
20260906035005 65 272 0.0 2.0 0.00 0.00 0.00 93 1015.4
20260906034005 65 0 0.0 0.0 0.00 0.00 0.00 93 1015.3
20260906033215 65 0 0.0 0.0 0.00 0.00 0.00 93 1015.1
20260906032005 64 214 1.0 4.0 0.00 0.00 0.00 93 1015.1
20260906031004 64 246 1.0 3.0 0.00 0.00 0.00 92 1015.0
20260906030004 64 202 1.0 3.0 0.00 0.00 0.00 91 1014.9
20260906025003 64 204 0.0 3.0 0.00 0.00 0.00 90 1015.0
20260906024005 64 216 0.0 2.0 0.00 0.00 0.00 89 1015.0
20260906023004 64 206 0.0 2.0 0.00 0.00 0.00 89 1015.1
20260906022004 64 212 0.0 2.0 0.00 0.00 0.00 88 1014.9
20260906021003 65 237 0.0 2.0 0.00 0.00 0.00 88 1014.8
20260906020003 65 190 0.0 3.0 0.00 0.00 0.00 88 1014.9
20260906015004 65 197 1.0 3.0 0.00 0.00 0.00 87 1014.9
20260906014004 65 234 1.0 4.0 0.00 0.00 0.00 87 1014.7
20260906013214 65 235 0.0 4.0 0.00 0.00 0.00 86 1014.7
20260906012214 65 225 0.0 2.0 0.00 0.00 0.00 85 1014.6
20260906011003 66 244 0.0 3.0 0.00 0.00 0.00 84 1014.7
20260906010003 66 244 0.0 3.0 0.00 0.00 0.00 83 1014.6
20260906005005 66 233 0.0 3.0 0.00 0.00 0.00 81 1014.6
20260906004004 67 249 1.0 3.0 0.00 0.00 0.00 81 1014.6
20260906003214 67 254 0.0 3.0 0.00 0.00 0.00 80 1014.6
20260906002003 67 307 1.0 5.0 0.00 0.00 0.00 79 1014.6
20260906001215 67 278 1.0 4.0 0.00 0.00 0.00 78 1014.4
20260906000003 68 280 2.0 8.0 0.00 0.00 0.00 77 1014.5
20260905235004 68 297 1.0 6.0 0.00 0.00 0.00 76 1014.3
20260905234003 69 285 1.0 5.0 0.00 0.00 0.00 75 1014.3
20260905233215 69 310 1.0 6.0 0.00 0.00 0.00 75 1014.2
20260905232003 70 287 2.0 5.0 0.00 0.00 0.00 73 1014.3
20260905231003 70 307 2.0 8.0 0.00 0.00 0.00 71 1014.3
20260905230003 71 356 1.0 5.0 0.00 0.00 0.00 70 1014.2
20260905225004 71 346 3.0 8.0 0.00 0.00 0.00 69 1014.2
20260905224005 72 319 2.0 8.0 0.00 0.00 0.00 67 1014.3
20260905223004 72 21 3.0 9.0 0.00 0.00 0.00 66 1014.4
20260905222005 72 17 3.0 10.0 0.00 0.00 0.00 65 1014.3
20260905221004 73 327 1.0 7.0 0.00 0.00 0.00 64 1014.1
20260905220005 73 355 3.0 7.0 0.00 0.00 0.00 64 1014.0
20260905215005 73 7 3.0 8.0 0.00 0.00 0.00 63 1013.9
20260905214005 74 335 3.0 9.0 0.00 0.00 0.00 63 1013.7
20260905213004 74 330 3.0 10.0 0.00 0.00 0.00 62 1013.6
20260905212003 74 359 3.0 10.0 0.00 0.00 0.00 63 1013.5
20260905211004 74 341 2.0 7.0 0.00 0.00 0.00 64 1013.4
20260905210005 74 351 4.0 12.0 0.00 0.00 0.00 64 1013.4
20260905205005 74 342 3.0 11.0 0.00 0.00 0.00 64 1013.4
20260905204005 73 304 4.0 12.0 0.00 0.00 0.00 65 1013.5
20260905203004 73 309 3.0 11.0 0.00 0.00 0.00 63 1013.5